Regional Weather Roundup
Issued by NWS

Home | Current Version | Previous Version | Graphics & Text | Print | Product List | Glossary On
Versions: 1 2 3 4 5 6 7 8 9 10 11 12 13 14 15 16 17 18 19 20 21 22 23 24 25 26 27 28 29 30 31 32 33 34 35 36 37 38 39 40 41 42 43 44 45 46 47 48 49 50
000
ASUS45 KTFX 190510
RWRMT
MONTANA REGIONAL WEATHER ROUNDUP
NATIONAL WEATHER SERVICE GREAT FALLS MT
1000 PM MST WED JAN 18 2017

NOTE: "FAIR" INDICATES FEW OR NO CLOUDS BELOW 12000 FEET WITH NO
SIGNIFICANT WEATHER AND/OR OBSTRUCTIONS TO VISIBILITY.

MTZ001>007-043-190600-
WEST OF THE DIVIDE

CITY           SKY/WX    TMP DP  RH WIND       PRES   REMARKS
KALISPELL      CLOUDY    31  29  92 S5        29.53F FOG
MISSOULA       MIX PCPN  28  26  92 W6        29.57F FOG     WCI  22
BUTTE          CLOUDY    21  15  78 CALM      29.62S
MULLAN PASS    SNOW      32  31  96 VRB3      29.49F VSB 1/4
ANACONDA         N/A     36  21  55 SE12      29.57F WCI  27
DEER LODGE       N/A     37  25  60 SW9       29.60R WCI  31
EUREKA           N/A     36  34  93 CALM      29.53S
HAMILTON         N/A     39  30  70 S16       29.56F WCI  30
PLAINS           N/A     31  25  78 CALM      29.58F
RONAN            N/A     29  26  88 CALM      29.60F
$$

MTZ008-052>055-190600-
SOUTHWEST MONTANA

CITY           SKY/WX    TMP DP  RH WIND       PRES   REMARKS
BOZEMAN        CLOUDY    19  13  77 S8        29.62F WCI   9
DILLON         CLOUDY    37  19  48 SW9       29.64F WCI  30
W YELLOWSTONE  CLOUDY    14  10  85 E3        29.81F
ENNIS          MOCLDY    32  19  59 S28G38    29.68S WCI  18
TWIN BRIDGES     N/A     29  16  58 SE10      29.68F WCI  20
$$

MTZ009-010-012-014-046-048-049-054-190600-
EAST SLOPES AND CENTRAL MONTANA

CITY           SKY/WX    TMP DP  RH WIND       PRES   REMARKS
CUT BANK       CLOUDY    40  32  73 SW8       29.42F
GREAT FALLS    CLOUDY    40  27  59 S18       29.48F
MALMSTROM AFB  PTCLDY    43  28  55 SW22      29.49S
HELENA         CLOUDY    26  18  71 E5        29.58F
AUGUSTA          N/A     37  28  70 S16       29.46F WCI  28
BOWMANS CRNR   MOCLDY    36  24  62 S15       29.49R WCI  27
CHOTEAU          N/A     39  32  75 S12       29.47F WCI  32
CONRAD           N/A     40  34  79 S3        29.52S
POWER            N/A     38  29  68 SW15      29.46F WCI  29
RAYNESFORD     MOCLDY    49  25  39 S7        29.48F
ULM            MOCLDY    42  27  55 MISG      29.49F
$$

MTZ011-013-016-021-045-047-050-051-190600-
NORTH CENTRAL MONTANA

CITY           SKY/WX    TMP DP  RH WIND       PRES   REMARKS
HAVRE          CLOUDY    37  30  75 W8        29.47F WCI  31
LEWISTOWN      CLOUDY    40  29  64 SW15      29.53R
CHINOOK          N/A     36  30  80 E6        29.49S WCI  31
DENTON         MOCLDY    36  28  71 S9        29.47F WCI  29
FORT BENTON      N/A     45  27  49 MISG      29.49S
GEYSER         MOCLDY    43  28  55 W8        29.48F
GRASS RANGE    MOCLDY    41  28  58 W3        29.48S
JUDITH GAP     MOCLDY    40  26  58 SW17      29.55F
ROY              N/A     40  29  64 MISG      29.50R
STANFORD       MOCLDY    45  29  52 W15       29.48F
WINIFRED         N/A     45  28  51 W5        29.50R
$$

MTZ017>020-022>027-061-062-190600-
NORTHEAST MONTANA

CITY           SKY/WX    TMP DP  RH WIND       PRES   REMARKS
GLASGOW        CLOUDY    29  23  78 SE8       29.50S WCI  21
JORDAN           N/A     30  25  81 N3        29.52F
SIDNEY         CLOUDY    25  21  85 S12       29.55R WCI  14
WOLF POINT     CLOUDY    18  15  88 W3        29.55R
PLENTYWOOD       N/A     30  25  80 E7        29.51R WCI  23
POPLAR           N/A     28  25  86 CALM      29.54R
SCOBEY           N/A     29  20  69 CALM      29.53R
$$

MTZ028>42-056>058-190600-
SOUTHCENTRAL AND SOUTHEAST MONTANA

CITY           SKY/WX    TMP DP  RH WIND       PRES   REMARKS
BAKER          CLOUDY    22  16  78 CALM      29.59R
BILLINGS       CLOUDY    35  21  56 SW16      29.58F WCI  25
LIVINGSTON     CLOUDY    44  16  32 SW14G37   29.60F
MILES CITY     CLOUDY    27  19  72 SE14      29.57F WCI  16
BIG TIMBER     CLEAR     41  18  38 W18G25    29.61F
EKALAKA          N/A     39  16  39 SE7       29.61S
FORSYTH          N/A     39  23  52 CALM      29.56F
HARLOWTON        N/A     37  23  58 W13       29.56F WCI  29
LAUREL           N/A     31  18  58 CALM      29.61F
ROUNDUP          N/A     40  23  50 S10       29.51S
$$

REGIONAL REPORTS...DAKOTAS

CITY           SKY/WX    TMP DP  RH WIND       PRES   REMARKS
WILLISTON      CLOUDY    26  22  84 SW5       29.54R
MINOT          CLOUDY    35  26  69 S5        29.50S
DICKINSON      CLOUDY    30  21  69 NW12      29.54R WCI  20
BEACH            N/A     36  23  60 SW15      29.58F WCI  26
CROSBY           N/A     28  25  86 SW21      29.50S WCI  15
TIOGA            N/A     30  27  86 W6        29.53F WCI  24
WATFORD CITY     N/A     23  19  86 W3        29.55R
BISMARCK       CLOUDY    20  15  81 E6        29.60F WCI  12
GRAND FORKS    CLOUDY    26  20  77 S17       29.62F WCI  13
FARGO          CLOUDY    30  25  81 S8        29.68F WCI  22
BUFFALO SD       N/A     32  22  66 W6        29.50F WCI  26
RAPID CITY     CLOUDY    25  20  81 W3        29.56F
$$

REGIONAL REPORTS...WYOMING/IDAHO/WASHINGTON

CITY           SKY/WX    TMP DP  RH WIND       PRES   REMARKS
GILLETTE       CLOUDY    35  21  56 SE6       29.64R WCI  30
SHERIDAN       CLOUDY    26  18  71 S7        29.60F WCI  18
BUFFALO WY     CLOUDY    39  19  44 W9        29.63F
CODY           CLOUDY    29  16  58 VRB5      29.67R
YELLOWSTONE LA   N/A      8   6  92 CALM      29.82F
IDAHO FALLS    CLOUDY    19  15  84 NW6       29.84R WCI  11
SALMON         CLOUDY    12  10  92 CALM      29.74S
BOISE          MIX PCPN  36  33  89 SE17      29.69F WCI  26
SPOKANE        CLOUDY    38  33  82 S8        29.48F
$$

REGIONAL REPORTS...ALBERTA

CITY           SKY/WX    TMP DP  RH WIND       PRES   REMARKS
EDMONTON       CLEAR     39  27  60 SW8       29.15S
CALGARY        MOCLDY    36  25  64 SW5       29.24F
LETHBRIDGE     MOCLDY    39  32  75 SW8       29.38F
MEDICINE HAT   PTCLDY    39  34  81 S13G22    29.38F WCI  32
WATERTON GATE    N/A     43  32  65 SW20G26     N/A
CARDSTON         N/A     43  30  61 NE5         N/A
MILK RIVER       N/A     41  34  75 S6          N/A
$$

REGIONAL REPORTS...SASKATCHEWAN

CITY           SKY/WX    TMP DP  RH WIND       PRES   REMARKS
SWIFT CURRENT  CLEAR     37  32  81 SW14      29.36S WCI  29
REGINA         PTCLDY    37  30  75 SW18      29.40F WCI  27
SASKATOON      PTCLDY    34  30  86 SW7       29.28F WCI  28
CYPRESS HILLS    N/A     41  30  65 SW10        N/A
VAL MARIE        N/A     32  27  80 SW9         N/A  WCI  24
ROCKGLEN         N/A     36  28  75 SW14        N/A  WCI  27
ASSINIBOIA       N/A     30  27  86 S5          N/A
$$



USA.gov is the U.S. government's official web portal to all federal, state and local government web resources and services.